Location: Unspecified
(0.0000°N, 0.0000°E)
Time: 12:10:21
(UTC+00:00)

Hubble Space Telescope - Pass Details

Date: 04 December 2019
Orbit: 536 x 540 km, 28.5° (Epoch: 10 December)

Event Time Altitude Azimuth Distance (km) Brightness Sun altitude
Rises 05:11:42 0° 213° (SSW) 2,681 4.2 -8.9°
Reaches altitude 10° 05:14:45 10° 190° (S) 1,788 3.6 -8.2°
Maximum altitude 05:17:15 16° 152° (SSE) 1,469 3.8 -7.6°
Drops below altitude 10° 05:19:45 10° 115° (ESE) 1,786 5.3 -7.0°
Sets 05:22:46 0° 92° (E) 2,674 5.9 -6.3°
